This is the latest recevied weather packets stored in our database for station/object SR7U-1. If no packets are shown the sender has not sent any weather packets the latest 10 day(s).
| Time | Temp. | Humidity | Pressure | Rain* | Wind** | Luminosity | Snow |
|---|---|---|---|---|---|---|---|
| 1777458830 | 6.67° C | 37% | 1025.7 hPa | - | - | - | - |
| 1777458055 | 6.67° C | 34% | 1025.7 hPa | - | - | - | - |
| 1777457230 | 6.67° C | 34% | 1025.7 hPa | - | - | - | - |
| 1777456370 | 6.11° C | 35% | 1025.7 hPa | - | - | - | - |
| 1777455535 | 5.56° C | 34% | 1025.8 hPa | - | - | - | - |
| 1777454697 | 6.67° C | 34% | 1025.7 hPa | - | - | - | - |
| 1777453870 | 6.11° C | 34% | 1025.6 hPa | - | - | - | - |
| 1777452970 | 6.11° C | 34% | 1025.8 hPa | - | - | - | - |
| 1777452181 | 6.11° C | 37% | 1025.6 hPa | - | - | - | - |
| 1777451350 | 5.56° C | 38% | 1025.6 hPa | - | - | - | - |
| 1777450555 | 5.56° C | 38% | 1025.6 hPa | - | - | - | - |
| 1777449735 | 5° C | 41% | 1025.5 hPa | - | - | - | - |
| 1777448950 | 5.56° C | 40% | 1025.4 hPa | - | - | - | - |
| 1777448230 | 5.56° C | 40% | 1025.5 hPa | - | - | - | - |
| 1777447365 | 4.44° C | 40% | 1025.3 hPa | - | - | - | - |
| 1777446480 | 4.44° C | 42% | 1025.3 hPa | - | - | - | - |
| 1777445723 | 4.44° C | 44% | 1025.1 hPa | - | - | - | - |
| 1777444978 | 3.89° C | 46% | 1025.2 hPa | - | - | - | - |
| 1777444240 | 4.44° C | 49% | 1025 hPa | - | - | - | - |
| 1777443465 | 3.89° C | 51% | 1024.9 hPa | - | - | - | - |
| 1777442662 | 3.33° C | 53% | 1024.9 hPa | - | - | - | - |
| 1777441930 | 3.33° C | 55% | 1024.9 hPa | - | - | - | - |
| 1777441195 | 2.78° C | 55% | 1024.7 hPa | - | - | - | - |
| 1777440360 | 2.78° C | 56% | 1024.7 hPa | - | - | - | - |
| 1777439578 | 2.22° C | 59% | 1024.6 hPa | - | - | - | - |
* Rain since midnight (hover to see other rain measurements)
** Current wind speed in m/s (hover to see current wind gust speed)